Weather History for Evanston, WY

Change the Weather History Date:

Wednesday, March 6, 2013

  Actual Average Record
Temperature  
Mean Temperature 34 °F 28 °F  
Max Temperature 45 °F 36 °F 45 °F (2006)
Min Temperature 23 °F 19 °F 8 °F (2008)
Degree Days  
Heating Degree Days 31 37  
Month to date heating degree days 209 229  
Since 1 July heating degree days 5804 6237  
Cooling Degree Days 0 0  
Month to date cooling degree days 0 0  
Year to date cooling degree days 0 0  
Moisture  
Dew Point 24 °F    
Average Humidity 48    
Maximum Humidity 60    
Minimum Humidity 36    
Precipitation  
Precipitation 0.00 in 0.02 in 0.02 in (2003)
Month to date precipitation T 0.13  
Year to date precipitation 0.47 1.28  
Sea Level Pressure  
Sea Level Pressure 29.88 in    
Wind  
Wind Speed 12 mph (WSW)    
Max Wind Speed 25 mph    
Max Gust Speed 32 mph    
Visibility 6 miles    
Events Snow    
T = Trace of Precipitation, MM = Missing Value Source: NWS Daily Summary

Daily Weather History Graph

Daily Weather History Graph

Search for Another Location

Airport:

Trip Planner

Search our weather history database for the weather conditions in past years. The results will help you decide how hot, cold, wet, or windy it might be!

Date:

Astronomy

Mar. 06, 2013 Rise Set
Actual Time 6:50 AM MST 6:21 PM MST
Civil Twilight 6:22 AM MST 6:48 PM MST
Nautical Twilight 5:50 AM MST 7:20 PM MST
Astronomical Twilight 5:18 AM MST 7:52 PM MST
Moon 3:04 AM MST (3/6) 1:04 PM MST (3/6)
Length of Visible Light 12h 26m
Length of Day
11h 30m
Waning Crescent, 29% of the Moon is Illuminated
Mar 6
Waning Crescent
Mar 11
New
Mar 19
First Quarter
Mar 27
Full
Apr 2
Last Quarter

Hourly Weather History & Observations

Time (MST) Temp. Windchill Dew Point Humidity Pressure Visibility Wind Dir Wind Speed Gust Speed Precip Events Conditions
12:53 AM 26.1 °F 16.8 °F 12.0 °F 55% 30.00 in 10.0 mi East 9.2 mph - N/A   Clear
1:53 AM 25.0 °F 15.5 °F 12.0 °F 58% 30.00 in 10.0 mi East 9.2 mph - N/A   Clear
2:53 AM 26.1 °F 16.8 °F 12.0 °F 55% 29.95 in 10.0 mi East 9.2 mph - N/A   Clear
3:53 AM 24.1 °F 13.7 °F 12.0 °F 60% 29.94 in 10.0 mi East 10.4 mph - N/A   Clear
4:53 AM 24.1 °F 14.4 °F 12.0 °F 60% 29.93 in 10.0 mi East 9.2 mph - N/A   Clear
5:53 AM 25.0 °F 15.5 °F 12.9 °F 60% 29.94 in 10.0 mi East 9.2 mph - N/A   Clear
6:53 AM 25.0 °F 16.3 °F 12.9 °F 60% 29.94 in 10.0 mi East 8.1 mph - N/A   Clear
7:53 AM 26.1 °F 17.6 °F 14.0 °F 60% 29.93 in 10.0 mi East 8.1 mph - N/A   Partly Cloudy
8:53 AM 28.9 °F 21.1 °F 15.1 °F 56% 29.93 in 10.0 mi East 8.1 mph - N/A   Clear
9:53 AM 32.0 °F - 17.1 °F 54% 29.89 in 10.0 mi Calm Calm - N/A   Clear
10:53 AM 39.0 °F 33.4 °F 17.1 °F 41% 29.85 in 10.0 mi SSW 8.1 mph - N/A   Clear
11:53 AM 43.0 °F 34.5 °F 19.9 °F 40% 29.80 in 10.0 mi SSW 19.6 mph 28.8 mph N/A   Clear
12:53 PM 44.1 °F 35.9 °F 21.9 °F 42% 29.79 in 10.0 mi SSW 19.6 mph 26.5 mph N/A   Clear
1:53 PM 44.1 °F 34.8 °F 21.9 °F 42% 29.76 in 10.0 mi SSW 25.3 mph 33.4 mph N/A   Clear
2:53 PM 44.1 °F 35.4 °F 21.0 °F 40% 29.76 in 10.0 mi SSW 21.9 mph 32.2 mph N/A   Partly Cloudy
3:53 PM 42.1 °F 32.1 °F 21.9 °F 45% 29.77 in 10.0 mi SW 25.3 mph - N/A   Clear
4:53 PM 41.0 °F 32.2 °F 24.1 °F 51% 29.76 in 10.0 mi SW 18.4 mph - N/A   Clear
5:53 PM 41.0 °F 32.8 °F 23.0 °F 49% 29.77 in 10.0 mi SW 16.1 mph 24.2 mph N/A   Overcast
6:53 PM 39.0 °F 29.9 °F 24.1 °F 55% 29.78 in 10.0 mi SSW 17.3 mph 24.2 mph N/A   Mostly Cloudy
7:53 PM 41.0 °F 31.4 °F 21.9 °F 47% 29.79 in 10.0 mi WSW 21.9 mph 31.1 mph N/A   Overcast
8:36 PM 35.6 °F 26.2 °F 28.4 °F 75% 29.86 in 10.0 mi West 15.0 mph - N/A   Overcast
8:46 PM 35.6 °F 26.6 °F 30.2 °F 81% 29.86 in 6.0 mi West 13.8 mph 21.9 mph 0.00 in Snow Light Snow
8:53 PM 35.1 °F 25.5 °F 30.0 °F 82% 29.86 in 4.0 mi West 15.0 mph - 0.00 in Snow Light Snow
9:02 PM 33.8 °F 23.5 °F 30.2 °F 87% 29.87 in 1.5 mi WSW 16.1 mph - 0.00 in Snow Light Snow
9:10 PM 33.8 °F 23.9 °F 30.2 °F 87% 29.87 in 0.8 mi West 15.0 mph - 0.00 in Snow Light Snow
9:19 PM 33.8 °F 24.3 °F 30.2 °F 87% 29.88 in 1.5 mi WSW 13.8 mph - 0.00 in Snow Light Snow
9:21 PM 33.8 °F 24.3 °F 30.2 °F 87% 29.88 in 2.0 mi WSW 13.8 mph - 0.00 in Snow Light Snow
9:29 PM 33.8 °F 23.5 °F 30.2 °F 87% 29.88 in 5.0 mi WSW 16.1 mph - 0.00 in Snow Light Snow
9:41 PM 33.8 °F 23.9 °F 30.2 °F 87% 29.88 in 2.5 mi WSW 15.0 mph - 0.00 in Snow Light Snow
9:47 PM 33.8 °F 24.3 °F 30.2 °F 87% 29.88 in 2.0 mi WSW 13.8 mph - 0.00 in Snow Light Snow
9:53 PM 33.1 °F 24.4 °F 30.9 °F 92% 29.87 in 1.8 mi WSW 11.5 mph - 0.00 in Snow Light Snow
10:01 PM 33.8 °F 24.8 °F 30.2 °F 87% 29.88 in 2.0 mi West 12.7 mph - 0.00 in Snow Light Snow
10:12 PM 33.8 °F 25.8 °F 30.2 °F 87% 29.89 in 4.0 mi WSW 10.4 mph - 0.00 in Snow Light Snow
10:30 PM 33.8 °F 26.4 °F 30.2 °F 87% 29.90 in 1.8 mi WSW 9.2 mph - 0.00 in Snow Light Snow
10:36 PM 33.8 °F 27.0 °F 30.2 °F 87% 29.89 in 1.0 mi WSW 8.1 mph - 0.00 in Snow Light Snow
10:46 PM 33.8 °F 27.0 °F 30.2 °F 87% 29.90 in 1.5 mi WSW 8.1 mph - 0.00 in Snow Light Snow
10:53 PM 32.0 °F 25.6 °F 30.9 °F 96% 29.85 in 0.8 mi WSW 6.9 mph - 0.00 in Snow Light Snow
11:23 PM 33.8 °F 24.3 °F 30.2 °F 87% 29.91 in 1.2 mi West 13.8 mph - 0.00 in Snow Light Snow
11:29 PM 32.0 °F 23.0 °F 30.2 °F 93% 29.92 in 2.0 mi WNW 11.5 mph - 0.00 in Snow Light Snow
11:40 PM 30.2 °F 19.3 °F 28.4 °F 93% 29.92 in 3.0 mi NNW 15.0 mph - 0.00 in Snow Light Snow
11:44 PM 30.2 °F 19.3 °F 28.4 °F 93% 29.92 in 1.8 mi NNW 15.0 mph - 0.00 in Snow Light Snow
11:51 PM 30.2 °F 19.3 °F 28.4 °F 93% 29.92 in 1.0 mi NNW 15.0 mph - 0.00 in Snow Light Snow
11:53 PM 30.0 °F 19.5 °F 28.9 °F 96% 29.86 in 0.8 mi NNW 13.8 mph - 0.00 in Snow Light Snow